Location: Dover
(48.8500°N, 53.9833°W)
Time: 17:39:40
(UTC+00:00)

Cosmos 489 Rocket - Pass Details

Date: 14 November 2025
Orbit: 952 x 982 km, 74.0° (Epoch: 09 December)

Event Time Altitude Azimuth Distance (km) Brightness Sun altitude
Rises 22:39:25 0° 335° (NNW) 3,671 7.9 -26.7°
Reaches altitude 10° 22:41:58 10° 335° (NNW) 2,716 7.1 -27.1°
Maximum altitude 22:48:15 78° 251° (WSW) 986 4.5 -28.2°
Enters shadow 22:50:15 46° 173° (S) 1,273 4.9 -28.5°
